Wind_Speed
48 49 50 51 50 50 48 47 48 48 48 47 46 44 43 41 41 41 40 39 37 36 36 36 35 34 33 33 32 31 30 29 28 27 26 25 25 23 23 23 22 21 21
49 49 49 51 51 51 51 49 48 48 48 48 47 45 45 43 42 41 41 39 38 37 37 36 36 35 35 34 33 32 31 31 30 29 28 27 26 25 24 24 24 23 23
46 49 49 51 51 51 51 51 50 49 48 49 49 48 46 45 44 43 42 40 39 38 37 36 36 36 36 36 35 34 33 32 31 30 29 28 27 26 26 26 25 25 25
44 46 49 51 51 51 51 51 51 50 49 49 49 48 48 46 46 46 45 42 41 40 39 37 37 37 38 37 37 36 35 34 33 32 31 30 29 29 28 28 28 28 27
42 43 46 49 51 51 51 52 51 51 50 49 49 48 48 48 47 48 48 46 44 43 42 40 39 39 39 39 39 38 37 36 35 34 33 33 32 31 30 30 30 30 30
41 43 44 48 49 50 51 52 51 51 50 49 49 49 48 48 48 49 49 48 45 44 43 44 43 41 41 40 40 40 39 38 38 37 36 35 34 33 33 32 32 32 31
38 40 42 44 47 49 51 52 52 51 51 51 50 49 49 48 48 49 50 49 47 46 45 45 45 44 43 42 42 41 41 40 40 39 38 37 36 36 35 35 34 34 34
37 39 40 42 44 46 49 50 52 52 51 51 51 51 50 50 50 51 51 51 49 47 47 45 45 45 45 44 43 43 43 43 42 41 40 40 39 38 37 37 37 37 36
36 37 39 41 42 44 46 48 49 51 51 51 52 51 52 52 51 52 52 51 49 48 48 47 46 47 47 46 46 45 45 45 44 43 42 41 41 40 39 39 39 39 39
34 36 37 39 41 42 43 44 46 48 50 51 53 52 52 52 52 52 53 52 49 49 50 49 48 48 48 48 47 47 47 47 46 45 45 44 44 43 42 42 41 41 41
34 36 37 38 40 40 41 42 44 46 48 50 52 52 52 52 51 53 53 53 51 49 49 50 49 47 47 48 48 48 48 48 47 46 46 44 44 44 44 44 43 43 43
32 34 36 38 39 39 41 41 43 43 45 48 51 53 53 52 51 52 53 53 53 51 49 49 49 49 48 48 47 47 48 47 47 47 46 45 45 45 45 45 44 44 44
30 32 33 36 38 39 40 41 42 44 44 46 48 50 52 52 52 52 53 53 53 52 51 49 49 49 49 49 48 48 48 48 47 47 47 47 47 47 46 46 46 46 46
29 30 32 35 36 38 40 40 41 42 44 45 46 48 51 52 52 53 54 53 53 52 52 52 51 50 50 50 50 49 48 48 48 48 48 48 48 48 48 48 49 48 47
27 29 31 33 34 36 38 38 40 41 43 44 46 47 49 51 51 52 53 53 53 53 52 52 52 52 52 51 50 50 49 49 49 49 49 49 49 48 49 49 49 48 47
26 28 30 32 34 35 36 37 38 40 41 43 44 45 47 49 50 52 53 53 54 54 53 52 52 52 52 52 51 51 51 50 50 49 48 48 49 49 49 48 48 48 48
26 28 30 31 33 35 36 36 37 38 40 42 43 45 46 47 49 50 52 53 54 54 54 54 53 53 53 53 53 52 51 51 50 50 50 50 49 48 48 48 48 48 48
26 28 30 31 32 34 36 37 37 38 39 40 42 44 44 45 47 49 50 52 54 54 54 54 54 54 54 53 53 52 52 52 52 52 52 51 49 48 48 48 48 48 48
25 27 29 30 31 32 34 35 35 37 38 38 40 43 44 44 45 47 50 52 53 53 52 52 52 52 52 52 52 52 53 53 53 53 52 52 51 50 49 48 48 48 48
24 26 28 29 30 31 33 34 34 35 37 37 38 40 43 43 44 45 47 49 51 52 52 50 50 50 50 50 51 52 52 52 52 52 52 52 51 51 51 50 49 49 49
25 26 27 29 29 30 32 33 34 35 36 37 37 37 39 41 41 42 44 46 48 49 50 51 50 49 49 49 50 50 50 51 52 52 51 51 51 51 51 50 50 51 50
26 26 28 29 30 30 31 31 32 33 35 35 36 36 37 38 39 40 41 42 45 47 48 49 49 49 49 49 49 50 50 51 51 51 51 51 50 51 51 50 51 51 51
27 28 29 30 31 31 31 32 32 33 34 35 35 35 36 36 37 39 39 40 41 43 45 47 48 49 49 49 50 50 51 51 51 51 51 51 51 51 51 51 51 51 52
27 28 29 30 30 31 32 32 33 33 34 35 36 35 36 37 37 37 38 39 40 42 43 44 46 47 48 48 48 50 51 51 51 51 51 51 51 51 51 51 51 51 52
28 28 29 30 31 31 31 32 33 33 34 34 35 35 35 36 36 37 37 37 38 39 40 42 43 44 45 47 49 50 50 51 51 51 51 51 51 51 51 51 51 50 50
29 29 29 30 31 31 31 32 32 33 34 34 34 34 34 35 36 36 36 37 38 38 39 40 41 42 43 44 45 47 48 48 49 50 50 50 50 50 50 50 50 50 50
Wind_Direction
236 234 233 232 232 232 231 231 232 232 231 232 233 234 234 234 232 231 230 233 233 234 234 233 233 233 234 234 235 237 239 241 243 244 246 247 248 249 250 252 255 258 260
236 233 232 231 232 231 231 231 231 231 232 231 232 233 234 233 230 229 230 232 233 234 234 235 234 234 234 234 235 238 239 241 243 245 246 248 248 249 251 253 255 258 260
236 235 232 230 231 231 231 231 231 231 232 231 232 232 233 233 231 230 231 232 233 233 233 235 236 235 235 235 236 238 239 241 242 244 246 247 249 250 252 254 257 259 261
237 237 234 231 230 231 231 231 231 231 232 232 231 232 232 233 233 232 232 232 233 234 234 235 236 236 236 236 237 238 239 241 243 245 247 248 250 251 253 255 258 260 262
237 237 235 232 230 230 230 230 229 230 231 231 231 231 231 232 233 233 233 232 234 235 236 236 237 238 238 238 238 239 241 242 244 245 248 249 250 252 254 257 259 261 263
237 236 235 233 230 229 229 229 229 229 230 230 230 231 231 232 233 233 233 233 233 235 236 236 237 238 238 239 239 240 241 243 244 246 248 250 251 253 254 256 258 260 263
237 236 235 233 230 229 228 229 229 229 230 230 229 229 231 232 233 232 233 234 234 235 237 238 238 237 238 239 240 241 242 243 245 246 248 250 252 253 255 256 259 260 262
238 235 235 234 230 229 229 229 229 229 230 230 230 229 230 232 232 232 233 234 235 235 237 237 237 238 239 240 241 243 243 245 245 247 249 251 253 254 255 257 259 261 263
239 236 235 235 230 228 229 229 230 229 230 230 230 230 230 231 232 232 233 233 234 235 237 238 237 238 240 241 242 243 245 246 246 247 249 251 253 255 256 257 259 262 263
239 236 234 233 229 228 227 229 230 230 230 230 230 230 230 230 231 232 233 233 235 236 237 238 238 240 240 242 243 245 246 247 247 248 250 252 254 256 257 258 260 262 264
239 236 234 232 230 230 229 230 230 230 230 230 230 230 231 231 232 232 233 234 235 237 238 239 239 240 240 241 243 244 245 247 248 250 251 252 255 256 256 258 260 261 264
239 236 234 232 229 229 228 230 230 231 230 230 231 231 232 231 232 233 234 235 236 237 238 239 240 240 241 241 243 245 246 247 247 249 250 252 254 255 257 258 259 261 263
239 235 234 232 230 230 229 230 230 231 231 231 232 232 232 232 233 234 235 236 236 237 238 239 240 240 241 242 244 245 246 246 247 249 250 252 253 256 258 259 261 262 264
240 235 232 232 231 231 229 230 231 232 233 233 233 233 233 232 233 234 235 236 236 237 239 240 241 242 242 243 245 246 247 247 249 250 251 253 256 258 259 261 262 264 264
240 236 233 231 231 231 230 230 231 233 234 233 234 234 233 233 233 234 236 237 237 238 239 241 242 243 245 245 246 246 248 249 250 252 254 255 257 259 260 261 263 263 263
239 236 234 232 231 232 231 231 232 232 234 236 236 236 234 235 236 236 237 238 238 239 241 243 243 244 244 245 247 248 250 251 251 252 254 255 257 259 261 261 262 263 263
240 236 234 233 233 234 233 233 234 233 234 236 238 237 238 237 237 238 239 238 239 241 242 243 244 244 245 246 247 248 249 251 251 252 254 255 257 259 259 260 261 263 263
243 239 236 236 236 236 236 236 236 237 237 238 239 238 237 237 239 239 240 240 240 241 242 243 244 245 246 247 248 249 251 251 251 252 254 256 258 259 260 261 261 262 263
245 241 237 236 238 238 238 238 239 239 239 240 241 239 239 240 240 241 240 241 241 241 243 244 245 245 246 247 248 250 251 251 252 253 255 256 257 259 260 260 261 262 263
246 242 238 238 239 239 240 240 240 240 241 241 241 242 242 242 243 242 242 243 244 243 243 244 246 246 247 247 248 249 251 252 252 253 255 256 256 258 259 260 261 261 263
249 247 243 241 241 242 242 242 242 243 243 243 243 244 244 243 244 244 243 243 244 243 243 244 246 248 248 248 249 250 251 251 252 253 254 255 256 258 259 260 261 262 263
251 249 248 247 246 246 245 245 245 244 244 244 244 245 244 244 244 244 244 244 244 244 245 245 246 248 250 251 251 252 252 252 253 254 255 255 256 258 260 260 261 262 263
252 252 251 250 249 249 248 247 247 246 244 243 243 244 244 244 245 245 245 245 245 246 247 247 247 249 250 250 251 253 254 253 254 254 255 255 257 259 260 261 262 263 264
256 255 255 253 251 250 250 249 247 247 246 245 243 243 243 243 245 246 246 248 248 248 248 248 248 248 249 250 251 253 254 255 256 257 257 257 258 260 261 262 264 264 264
258 257 256 254 252 251 250 250 249 247 247 245 244 245 245 245 246 246 247 249 249 249 249 249 250 249 249 251 253 254 255 256 257 258 258 259 260 261 262 262 263 263 265
258 257 257 255 252 252 251 251 250 248 248 247 245 247 247 246 247 247 248 248 249 249 249 250 250 251 252 252 254 255 255 256 258 258 259 259 260 261 261 262 262 262 263
Height
5681 5686 5692 5698 5703 5710 5716 5721 5726 5732 5737 5743 5748 5753 5757 5761 5766 5770 5775 5779 5783 5786 5789 5793 5796 5800 5804 5807 5811 5814 5816 5819 5821 5823 5825 5827 5828 5829 5830 5831 5832 5833 5833
5667 5673 5679 5685 5691 5697 5704 5710 5715 5720 5726 5732 5738 5743 5748 5752 5756 5761 5766 5770 5774 5778 5781 5784 5788 5792 5796 5800 5803 5807 5810 5812 5815 5817 5819 5821 5823 5824 5825 5826 5827 5827 5828
5655 5661 5666 5673 5679 5685 5692 5698 5704 5710 5714 5720 5727 5732 5737 5741 5746 5752 5757 5761 5766 5770 5773 5776 5780 5784 5788 5792 5796 5800 5803 5806 5808 5811 5813 5815 5817 5818 5820 5820 5821 5822 5822
5644 5649 5654 5660 5667 5674 5680 5686 5693 5698 5704 5709 5716 5721 5727 5732 5737 5742 5747 5752 5756 5761 5765 5768 5772 5776 5781 5785 5788 5792 5795 5798 5801 5804 5806 5809 5810 5812 5814 5815 5815 5816 5816
5634 5638 5642 5648 5655 5662 5668 5674 5680 5687 5693 5698 5705 5711 5716 5722 5727 5732 5737 5742 5747 5752 5756 5760 5764 5768 5773 5777 5780 5784 5788 5791 5794 5796 5799 5801 5803 5805 5807 5808 5809 5809 5809
5624 5628 5632 5637 5643 5649 5656 5663 5669 5675 5682 5688 5694 5700 5706 5712 5717 5722 5727 5733 5738 5743 5747 5752 5756 5760 5764 5768 5772 5776 5779 5783 5786 5788 5791 5793 5795 5797 5799 5800 5801 5802 5802
5614 5618 5622 5626 5632 5638 5645 5651 5658 5665 5671 5677 5683 5690 5696 5701 5707 5712 5717 5722 5728 5733 5738 5743 5747 5751 5755 5759 5763 5767 5770 5774 5777 5780 5783 5785 5787 5789 5790 5792 5793 5794 5795
5605 5609 5612 5616 5622 5627 5634 5640 5647 5654 5660 5666 5673 5679 5685 5691 5696 5702 5707 5712 5718 5723 5728 5732 5736 5741 5745 5749 5753 5757 5761 5764 5767 5770 5773 5776 5778 5780 5781 5783 5785 5785 5786
5596 5599 5603 5607 5613 5618 5624 5630 5636 5643 5649 5655 5662 5668 5674 5680 5686 5691 5696 5702 5707 5713 5718 5722 5726 5731 5735 5739 5743 5747 5751 5754 5757 5761 5764 5766 5768 5770 5772 5773 5775 5776 5777
5587 5591 5595 5599 5604 5609 5615 5621 5627 5632 5638 5644 5650 5657 5663 5669 5675 5680 5686 5691 5697 5702 5707 5711 5716 5721 5725 5729 5733 5736 5740 5743 5747 5750 5753 5756 5758 5760 5761 5763 5764 5765 5767
5579 5582 5586 5590 5596 5601 5606 5611 5617 5622 5627 5633 5639 5646 5652 5657 5663 5670 5675 5680 5686 5691 5696 5700 5705 5709 5713 5718 5722 5725 5729 5732 5736 5739 5742 5745 5746 5749 5751 5752 5753 5755 5755
5571 5574 5578 5582 5587 5592 5598 5603 5608 5613 5618 5623 5629 5635 5641 5647 5653 5659 5664 5669 5674 5679 5684 5688 5693 5698 5702 5706 5710 5714 5717 5721 5724 5727 5731 5733 5735 5737 5739 5741 5742 5743 5744
5564 5567 5571 5575 5579 5584 5589 5593 5598 5603 5608 5613 5619 5624 5630 5636 5641 5647 5653 5658 5662 5667 5672 5676 5680 5685 5690 5694 5698 5702 5706 5709 5713 5716 5719 5721 5723 5725 5727 5729 5730 5731 5732
5557 5560 5564 5568 5572 5576 5580 5584 5589 5594 5599 5604 5609 5613 5618 5624 5630 5635 5640 5645 5650 5655 5659 5664 5668 5672 5677 5681 5686 5690 5694 5697 5701 5704 5707 5709 5711 5713 5715 5716 5717 5718 5719
5552 5554 5557 5561 5565 5569 5572 5576 5581 5585 5589 5594 5599 5603 5608 5613 5618 5624 5628 5633 5638 5643 5647 5652 5656 5660 5664 5669 5673 5678 5681 5685 5689 5692 5695 5697 5699 5700 5702 5703 5705 5706 5707
5546 5548 5551 5555 5558 5561 5565 5569 5573 5577 5580 5585 5589 5593 5597 5602 5607 5612 5616 5621 5626 5630 5635 5640 5644 5648 5652 5656 5660 5664 5669 5673 5676 5680 5682 5684 5686 5688 5689 5691 5692 5693 5694
5540 5542 5545 5548 5551 5554 5558 5561 5565 5568 5572 5576 5580 5583 5587 5592 5596 5601 5605 5609 5614 5618 5623 5628 5632 5636 5640 5644 5648 5652 5656 5660 5664 5667 5669 5671 5673 5675 5676 5678 5679 5680 5680
5534 5536 5539 5541 5544 5547 5550 5553 5557 5560 5563 5566 5570 5573 5577 5581 5585 5589 5593 5597 5602 5606 5611 5615 5619 5623 5627 5631 5635 5639 5643 5647 5650 5653 5656 5658 5660 5662 5663 5665 5666 5667 5668
5528 5530 5532 5535 5537 5539 5542 5545 5548 5551 5554 5557 5560 5564 5567 5570 5574 5578 5582 5585 5590 5594 5599 5603 5607 5611 5615 5619 5622 5626 5629 5633 5637 5640 5642 5645 5647 5649 5650 5652 5653 5654 5655
5522 5523 5525 5527 5530 5532 5534 5537 5539 5542 5545 5548 5551 5554 5557 5560 5563 5567 5570 5574 5578 5582 5587 5591 5594 5598 5602 5606 5609 5612 5616 5620 5624 5626 5629 5631 5633 5635 5636 5638 5639 5641 5642
5515 5516 5518 5520 5522 5524 5526 5529 5531 5533 5536 5538 5541 5544 5547 5550 5553 5556 5560 5563 5567 5571 5574 5579 5582 5586 5590 5593 5596 5599 5602 5606 5609 5612 5614 5617 5619 5620 5622 5624 5626 5627 5628
5507 5509 5511 5512 5514 5516 5518 5521 5523 5525 5527 5529 5532 5535 5538 5540 5543 5546 5549 5552 5555 5559 5562 5566 5569 5573 5576 5580 5583 5586 5589 5591 5595 5597 5600 5602 5604 5606 5608 5609 5611 5612 5613
5500 5501 5503 5504 5506 5508 5510 5512 5514 5516 5518 5521 5523 5526 5528 5531 5533 5536 5538 5541 5544 5547 5550 5553 5557 5561 5563 5566 5569 5572 5574 5577 5580 5583 5585 5588 5590 5592 5593 5595 5596 5597 5598
5492 5493 5494 5496 5498 5499 5501 5503 5505 5507 5509 5511 5514 5516 5518 5521 5524 5526 5528 5531 5533 5536 5538 5541 5544 5547 5550 5553 5555 5558 5560 5563 5565 5568 5571 5573 5575 5577 5579 5580 5582 5582 5583
5483 5484 5486 5487 5489 5491 5492 5494 5496 5498 5500 5502 5504 5507 5509 5511 5513 5516 5518 5521 5523 5525 5527 5530 5532 5535 5538 5540 5542 5544 5547 5549 5552 5554 5556 5559 5561 5562 5564 5566 5567 5568 5569
5474 5475 5477 5478 5480 5481 5483 5485 5487 5488 5491 5493 5495 5497 5499 5501 5503 5506 5508 5510 5513 5514 5516 5519 5521 5523 5526 5527 5529 5531 5533 5535 5538 5540 5542 5544 5546 5548 5550 5551 5553 5554 5554